When you browse on this site, cookies collect data to enhance your experience and personalize the content and advertising you see.
Visit our Privacy Policy to learn more. By continuing to use the site, you agree to this use of cookies and data.
  • In Österreich
  • Länderverzeichnis
  • Für 7 Tage
  • Wassertemperatur
  • Wetterkarte
  • News
  • Widgets
  • user-avatar
    Anmelden

    Stündliche Wetter Halifax

    Heute, 11 Dezember, Mittwoch

    Zeit Temperatur Niederschläge Wind Luftdruck Luftfeuchtigkeit
    00:00 +11°C° 0.1 mm 7 m/S 754 mmHg 90%
    01:00 +11°C° 0.1 mm 6 m/S 755 mmHg 89%
    02:00 +10°C° 0.1 mm 6 m/S 755 mmHg 88%
    03:00 +8°C° 0.5 mm 6 m/S 756 mmHg 88%
    04:00 +5°C° 0.5 mm 6 m/S 757 mmHg 87%
    05:00 +2°C° 0.5 mm 7 m/S 757 mmHg 86%
    06:00 +1°C° 0.3 mm 6 m/S 758 mmHg 88%
    07:00 0°C° 0.3 mm 5 m/S 759 mmHg 89%
    08:00 -1°C° 0.3 mm 4 m/S 760 mmHg 90%
    09:00 -1°C° 0.7 mm 4 m/S 760 mmHg 91%
    10:00 -2°C° 0.7 mm 4 m/S 761 mmHg 92%
    11:00 -2°C° 0.7 mm 4 m/S 762 mmHg 93%
    12:00 -3°C° 1 mm 4 m/S 762 mmHg 94%
    13:00 -3°C° 1 mm 4 m/S 762 mmHg 94%
    14:00 -4°C° 1 mm 3 m/S 762 mmHg 94%
    15:00 -4°C° 0.9 mm 3 m/S 762 mmHg 94%
    16:00 -5°C° 0.9 mm 3 m/S 762 mmHg 94%
    17:00 -5°C° 0.9 mm 3 m/S 762 mmHg 94%
    18:00 -6°C° 0.3 mm 3 m/S 762 mmHg 93%
    19:00 -6°C° 0.3 mm 3 m/S 762 mmHg 93%
    20:00 -7°C° 0.3 mm 3 m/S 763 mmHg 92%
    21:00 -8°C° 0 mm 3 m/S 763 mmHg 93%
    22:00 -7°C° 0 mm 2 m/S 763 mmHg 94%
    23:00 -8°C° 0 mm 2 m/S 763 mmHg 95%

    Morgen, 12 Dezember, Donnerstag

    Zeit Temperatur Niederschläge Wind Luftdruck Luftfeuchtigkeit
    00:00 -8°C° 0 mm 2 m/S 763 mmHg 94%
    01:00 -7°C° 0 mm 1 m/S 763 mmHg 94%
    02:00 -7°C° 0 mm 1 m/S 763 mmHg 93%
    03:00 -7°C° 0 mm 1 m/S 763 mmHg 93%
    04:00 -8°C° 0 mm 2 m/S 763 mmHg 93%
    05:00 -8°C° 0 mm 2 m/S 763 mmHg 92%
    06:00 -9°C° 0.1 mm 4 m/S 764 mmHg 89%
    07:00 -8°C° 0.1 mm 6 m/S 764 mmHg 87%
    08:00 -7°C° 0.1 mm 8 m/S 765 mmHg 84%
    09:00 -7°C° 0 mm 8 m/S 766 mmHg 75%
    10:00 -9°C° 0 mm 9 m/S 767 mmHg 66%
    11:00 -9°C° 0 mm 9 m/S 768 mmHg 57%
    12:00 -9°C° 0 mm 9 m/S 768 mmHg 57%
    13:00 -10°C° 0 mm 8 m/S 769 mmHg 57%
    14:00 -10°C° 0 mm 8 m/S 770 mmHg 57%
    15:00 -11°C° 0 mm 7 m/S 771 mmHg 61%
    16:00 -11°C° 0 mm 6 m/S 771 mmHg 66%
    17:00 -12°C° 0 mm 5 m/S 772 mmHg 70%
    18:00 -12°C° 0 mm 5 m/S 773 mmHg 71%
    19:00 -12°C° 0 mm 5 m/S 774 mmHg 72%
    20:00 -11°C° 0 mm 4 m/S 775 mmHg 73%
    21:00 -11°C° 0 mm 4 m/S 775 mmHg 73%
    22:00 -12°C° 0 mm 4 m/S 775 mmHg 73%
    23:00 -12°C° 0 mm 4 m/S 776 mmHg 73%

    übermorgen, 13 Dezember, Freitag

    Zeit Temperatur Niederschläge Wind Luftdruck Luftfeuchtigkeit
    00:00 -12°C° 0 mm 3 m/S 776 mmHg 74%
    01:00 -12°C° 0 mm 3 m/S 776 mmHg 76%
    02:00 -10°C° 0 mm 2 m/S 776 mmHg 77%
    03:00 -10°C° 0 mm 2 m/S 776 mmHg 77%
    04:00 -8°C° 0 mm 1 m/S 776 mmHg 77%
    05:00 -8°C° 0 mm 1 m/S 775 mmHg 77%
    06:00 -8°C° 0 mm 1 m/S 776 mmHg 76%
    07:00 -8°C° 0 mm 1 m/S 776 mmHg 76%
    08:00 -8°C° 0 mm 0 m/S 776 mmHg 76%
    09:00 -6°C° 0 mm 1 m/S 776 mmHg 72%
    10:00 -6°C° 0 mm 2 m/S 776 mmHg 68%
    11:00 -5°C° 0 mm 3 m/S 776 mmHg 64%
    12:00 -4°C° 0 mm 3 m/S 775 mmHg 65%
    13:00 -3°C° 0 mm 4 m/S 774 mmHg 65%
    14:00 -2°C° 0 mm 4 m/S 774 mmHg 65%
    15:00 -3°C° 0 mm 4 m/S 773 mmHg 70%
    16:00 -3°C° 0 mm 4 m/S 773 mmHg 76%
    17:00 -4°C° 0 mm 5 m/S 772 mmHg 81%
    18:00 -2°C° 0 mm 5 m/S 772 mmHg 81%
    19:00 -2°C° 0 mm 4 m/S 772 mmHg 81%
    20:00 -1°C° 0 mm 4 m/S 772 mmHg 82%
    21:00 -1°C° 0 mm 4 m/S 771 mmHg 84%
    22:00 -1°C° 0 mm 4 m/S 771 mmHg 87%
    23:00 -1°C° 0 mm 4 m/S 770 mmHg 89%

    14 Dezember, Samstag

    Zeit Temperatur Niederschläge Wind Luftdruck Luftfeuchtigkeit
    00:00 0°C° 0 mm 4 m/S 770 mmHg 91%
    01:00 +1°C° 0 mm 3 m/S 769 mmHg 93%
    02:00 +2°C° 0 mm 3 m/S 769 mmHg 94%
    03:00 +2°C° 0.1 mm 3 m/S 768 mmHg 95%
    04:00 +3°C° 0.1 mm 3 m/S 768 mmHg 96%
    05:00 +3°C° 0.1 mm 3 m/S 767 mmHg 97%
    06:00 +3°C° 0 mm 3 m/S 767 mmHg 97%
    07:00 +4°C° 0 mm 4 m/S 766 mmHg 97%
    08:00 +4°C° 0 mm 4 m/S 765 mmHg 97%
    09:00 +5°C° 0.2 mm 5 m/S 765 mmHg 97%
    10:00 +4°C° 0.2 mm 6 m/S 764 mmHg 97%
    11:00 +5°C° 0.2 mm 6 m/S 763 mmHg 97%
    12:00 +5°C° 1.7 mm 7 m/S 761 mmHg 97%
    13:00 +6°C° 1.7 mm 8 m/S 759 mmHg 97%
    14:00 +6°C° 1.7 mm 9 m/S 757 mmHg 97%
    15:00 +7°C° 5.2 mm 10 m/S 755 mmHg 96%
    16:00 +8°C° 5.2 mm 12 m/S 753 mmHg 96%
    17:00 +9°C° 5.2 mm 13 m/S 751 mmHg 95%
    18:00 +10°C° 7.5 mm 13 m/S 749 mmHg 95%
    19:00 +10°C° 7.5 mm 12 m/S 747 mmHg 95%
    20:00 +12°C° 7.5 mm 12 m/S 745 mmHg 95%
    21:00 +12°C° 1.1 mm 11 m/S 745 mmHg 95%
    22:00 +12°C° 1.1 mm 10 m/S 744 mmHg 96%
    23:00 +12°C° 1.1 mm 9 m/S 743 mmHg 96%

    15 Dezember, Sonntag

    Zeit Temperatur Niederschläge Wind Luftdruck Luftfeuchtigkeit
    00:00 +11°C° 0 mm 8 m/S 743 mmHg 95%
    01:00 +11°C° 0 mm 7 m/S 743 mmHg 95%
    02:00 +11°C° 0 mm 6 m/S 743 mmHg 95%
    03:00 +11°C° 0.7 mm 6 m/S 742 mmHg 95%
    04:00 +11°C° 0.7 mm 6 m/S 741 mmHg 96%
    05:00 +12°C° 0.7 mm 5 m/S 740 mmHg 97%
    06:00 +11°C° 0 mm 6 m/S 740 mmHg 96%
    07:00 +10°C° 0 mm 6 m/S 740 mmHg 95%
    08:00 +10°C° 0 mm 6 m/S 740 mmHg 94%
    09:00 +10°C° 0 mm 6 m/S 739 mmHg 92%
    10:00 +9°C° 0 mm 6 m/S 739 mmHg 90%
    11:00 +9°C° 0 mm 6 m/S 739 mmHg 88%
    12:00 +9°C° 0 mm 6 m/S 738 mmHg 88%
    13:00 +9°C° 0 mm 6 m/S 737 mmHg 87%
    14:00 +8°C° 0 mm 6 m/S 736 mmHg 87%
    15:00 +8°C° 0 mm 6 m/S 736 mmHg 86%
    16:00 +7°C° 0 mm 6 m/S 736 mmHg 85%
    17:00 +7°C° 0 mm 6 m/S 737 mmHg 84%
    18:00 +6°C° 0 mm 7 m/S 737 mmHg 82%
    19:00 +5°C° 0 mm 8 m/S 737 mmHg 80%
    20:00 +5°C° 0 mm 8 m/S 738 mmHg 79%
    21:00 +3°C° 0 mm 9 m/S 738 mmHg 77%
    22:00 +3°C° 0 mm 9 m/S 739 mmHg 76%
    23:00 +2°C° 0 mm 9 m/S 739 mmHg 75%

    16 Dezember, Montag

    Zeit Temperatur Niederschläge Wind Luftdruck Luftfeuchtigkeit
    00:00 +1°C° 0 mm 10 m/S 740 mmHg 74%
    01:00 +1°C° 0 mm 10 m/S 741 mmHg 73%
    02:00 +1°C° 0 mm 10 m/S 742 mmHg 72%
    03:00 0°C° 0 mm 10 m/S 742 mmHg 72%
    04:00 -2°C° 0 mm 10 m/S 743 mmHg 72%
    05:00 -3°C° 0 mm 10 m/S 743 mmHg 72%
    06:00 -4°C° 0 mm 10 m/S 744 mmHg 72%
    07:00 -4°C° 0 mm 10 m/S 744 mmHg 72%
    08:00 -5°C° 0 mm 10 m/S 745 mmHg 72%
    09:00 -6°C° 0 mm 11 m/S 746 mmHg 70%
    10:00 -7°C° 0 mm 11 m/S 746 mmHg 68%
    11:00 -7°C° 0 mm 11 m/S 747 mmHg 66%
    12:00 -7°C° 0 mm 11 m/S 747 mmHg 63%
    13:00 -7°C° 0 mm 11 m/S 747 mmHg 61%
    14:00 -7°C° 0 mm 11 m/S 747 mmHg 59%
    15:00 -7°C° 0 mm 11 m/S 748 mmHg 58%
    16:00 -7°C° 0 mm 11 m/S 748 mmHg 57%
    17:00 -8°C° 0 mm 11 m/S 748 mmHg 56%
    18:00 -8°C° 0 mm 12 m/S 749 mmHg 54%
    19:00 -8°C° 0 mm 12 m/S 750 mmHg 52%
    20:00 -8°C° 0 mm 12 m/S 751 mmHg 50%
    21:00 -8°C° 0 mm 12 m/S 751 mmHg 50%
    22:00 -9°C° 0 mm 11 m/S 752 mmHg 50%
    23:00 -9°C° 0 mm 11 m/S 753 mmHg 51%
    Mehr zeigen